Tracking 30102 objects as of 12-Dec-2024
HD Live streaming from Space Station
objects crossing your sky now

STARLINK-32475

Track STARLINK-32475 now!
10-day predictions
STARLINK-32475 is classified as:


NORAD ID: 61728
Int'l Code: 2024-196X
Perigee: 453.8 km
Apogee: 454.9 km
Inclination: 53.2 °
Period: 93.5 minutes
Semi major axis: 6825 km
RCS: Unknown
Launch date: October 30, 2024
Source: United States (US)
Launch site: AIR FORCE EASTERN TEST RANGE (AFETR)
Your satellite tracking list
Your tracking list is empty




NASA's NSSDC Master Catalog

Two Line Element Set (TLE):
1 61728U 24196X   24347.17908260  .00000248  00000-0  16181-4 0  9994
2 61728  53.1623  46.1538 0000827  96.4076 263.7023 15.39628467  7698
Source of the keplerian elements: AFSPC